www.pogodaiklimat.ru

Погода и климат >> Архив погоды >> Австралия >> Квинсленд >> Блэколл


ПОГОДА в Блэколле

  • Прогноз погоды в Блэколле
  • Монитор погоды в Блэколле

АРХИВ ПОГОДЫ в Блэколле

Время (UTC), дата Ветер
(напр.,м/с)
 
Видим.   Явления Облачность Т
(С)
Тd
(С)
f
(%)
Тe
(С)
Тes
(С)
Комфортность P
(гПа)
Po
(гПа)
Тmin
(С)
Tmax
(С)
R
(мм)
R24
(мм)
S
(см)
17 9.06 В 2 н/о н/о +12.9 +12.4 97 +12 +12 1020.5 987.2
20 9.06 В 3 н/о н/о +11.9 +11.9 100 +10 +10 1020.9 987.6
23 9.06 СВ 4 н/о н/о +17.2 +13.7 80 +17 +17 1022.3 989.0
02 10.06 С 5 н/о н/о +23.9 +13.7 53 +26 +26 жарко 1020.8 987.5 +11.4
05 10.06 СВ 3 н/о н/о +25.8 +13.0 45 +28 +28 жарко 1018.2 985.0
08 10.06 штиль 0 н/о н/о +21.2 +12.6 58 +23 +23 комфорт 1018.9 985.7
11 10.06 штиль 0 н/о н/о +17.7 +13.2 75 +18 +18 1020.6 987.3
14 10.06 СВ 2 н/о н/о +15.7 +13.4 86 +16 +16 1020.7 987.4 +26.6
17 10.06 СВ 2 н/о н/о +16.6 +13.7 83 +17 +17 1020.6 987.3
20 10.06 СВ 2 н/о н/о +13.7 +12.6 93 +13 +13 1021.1 987.8
23 10.06 В 3 н/о н/о +19.6 +13.8 69 +22 +22 комфорт 1023.7 990.3
02 11.06 СВ 3 н/о н/о +24.7 +11.3 43 +26 +26 жарко 1022.6 989.3 +12.0
05 11.06 ЮВ 4 н/о н/о +26.2 +9.5 35 +27 +27 жарко 1020.0 986.8
08 11.06 В 2 н/о н/о +20.8 +8.8 46 +23 +23 комфорт 1020.8 987.5
11 11.06 В 2 н/о н/о +16.3 +9.0 62 +16 +16 1022.1 988.8
14 11.06 В 2 н/о н/о +13.5 +8.6 72 +13 +13 1021.9 988.6 +27.0
17 11.06 В 2 н/о н/о +11.4 +8.3 81 +10 +10 1021.3 988.0
20 11.06 В 2 н/о н/о +10.9 +8.0 82 +10 +10 1021.5 988.2
23 11.06 СВ 5 н/о н/о +17.9 +10.0 60 +18 +18 1022.8 989.5
02 12.06 С 6 н/о н/о +23.7 +9.7 41 +25 +25 комфорт 1021.5 988.2 +10.4
05 12.06 С 5 н/о н/о +24.6 +8.5 36 +25 +25 комфорт 1018.5 985.3
08 12.06 СВ 3 н/о н/о +19.8 +8.5 48 +21 +21 комфорт 1019.5 986.3
11 12.06 СВ 3 н/о н/о +16.5 +9.9 65 +16 +16 1020.7 987.4
14 12.06 В 3 н/о н/о +14.5 +10.1 75 +14 +14 1020.3 987.0 +25.6
17 12.06 СВ 4 н/о н/о +13.5 +10.7 83 +12 +12 1018.5 985.3
20 12.06 ЮВ 2 н/о н/о +12.2 +10.6 90 +11 +11 1019.9 986.7
23 12.06 СВ 4 н/о н/о +18.1 +13.6 75 +18 +18 1021.3 988.0
02 13.06 С 4 н/о н/о +24.2 +11.9 46 +26 +26 жарко 1019.6 986.4 +11.7
05 13.06 С 2 н/о н/о +25.6 +10.6 39 +27 +27 жарко 1017.4 984.2
08 13.06 С 1 н/о н/о +21.1 +10.3 50 +23 +23 комфорт 1017.5 984.3
11 13.06 СВ 2 н/о н/о +15.8 +9.9 68 +16 +16 1019.0 985.8
14 13.06 штиль 0 н/о н/о +13.6 +9.6 77 +13 +13 1019.2 986.0 +26.4
17 13.06 штиль 0 н/о н/о +12.1 +9.1 82 +12 +12 1017.9 984.7
20 13.06 штиль 0 н/о н/о +10.1 +8.5 90 +9 +9 1018.6 985.4
23 13.06 С 2 н/о н/о +18.0 +11.8 67 +19 +19 1020.0 986.8
02 14.06 С 2 н/о н/о +25.3 +11.8 43 +27 +27 жарко 1018.6 985.4 +9.8
05 14.06 штиль 0 н/о н/о +26.9 +11.0 37 +28 +28 жарко 1016.2 983.1
08 14.06 штиль 0 н/о н/о +23.1 +10.9 46 +25 +25 комфорт 1017.0 983.9
11 14.06 штиль 0 н/о н/о +19.9 +11.4 58 +21 +21 комфорт 1018.7 985.5
14 14.06 В 3 н/о н/о +19.3 +12.1 63 +21 +21 комфорт 1018.4 985.2 +27.7
17 14.06 ЮВ 2 н/о н/о +17.4 +11.4 68 +18 +18 1017.0 983.9
20 14.06 Ю 3 н/о н/о +15.3 +10.9 75 +15 +15 1018.0 984.8
23 14.06 Ю 1 н/о н/о +18.8 +12.1 65 +21 +21 комфорт 1019.6 986.4
02 15.06 В 1 н/о н/о +26.5 +8.0 31 +26 +26 жарко 1018.1 984.9 +12.6
05 15.06 З 3 н/о н/о +27.4 +6.2 26 +27 +27 жарко 1016.0 982.9
08 15.06 ЮЗ 3 н/о н/о +22.7 +8.4 40 +24 +24 комфорт 1016.8 983.7
11 15.06 Ю 4 н/о н/о +18.9 +8.0 49 +19 +19 1018.6 985.4
14 15.06 В 4 н/о н/о +16.2 +7.9 58 +16 +16 1018.1 984.9 +27.9
17 15.06 штиль 0 н/о н/о +11.3 +6.2 71 +11 +11 1017.3 984.1
20 15.06 ЮЗ 2 н/о н/о +10.2 +6.4 77 +9 +9 1018.3 985.1
23 15.06 ЮВ 2 н/о н/о +16.2 +7.4 56 +17 +17 1020.7 987.4
02 16.06 З 2 н/о н/о +23.5 +4.5 29 +23 +23 комфорт 1018.9 985.7 +10.0
05 16.06 З 5 н/о н/о +24.9 +3.5 25 +24 +24 комфорт 1016.8 983.7
08 16.06 З 2 н/о н/о +20.6 +4.6 35 +22 +22 комфорт 1017.3 984.1
11 16.06 Ю 3 н/о н/о +16.6 +5.9 49 +16 +16 1019.7 986.5
14 16.06 Ю 3 н/о н/о +12.9 +5.1 59 +12 +12 1020.0 986.8 +25.9

 

Местоположение метеостанции Блэколл (Квинсленд, Австралия): широта -24.42 долгота 145.43 высота над уровнем моря 282 м.

В архиве по умолчанию представлена погода в Блэколле за последнюю неделю. Архивные данные за месяц целиком и за предыдущие месяцы, начиная с января 2011 года, Вы можете получить, выбрав интересующий диапазон дат из раскрывающегося списка и нажав кнопку "Ввод!".


*Определитесь, кто Вы:
робот инопланетянин человек

Внимание! Время в таблицах - всемирное. Для получения местного времени необходимо прибавить поправку, которая равна 10 ч.

Смотрите также архив погоды в соседних городах и на ближайших метеорологических станциях:

Погода в Лонгриче (Квинсленд, Австралия) (161 км)
Погода в Лочингтоне (Квинсленд, Австралия) (219 км)
Погода в Чарвилле (Квинсленд, Австралия) (237 км)
Погода в Клермоне (Квинсленд, Австралия) (289 км)
Погода в Эмералде (Квинсленд, Австралия) (295 км)
Погода в Роллстоне (Квинсленд, Австралия) (324 км)
Погода в Уинтоне (Квинсленд, Австралия) (331 км)
Погода в Роме (Квинсленд, Австралия) (411 км)
Погода в Хьюэндене (Квинсленд, Австралия) (419 км)
Погода в Таргоминде (Квинсленд, Австралия) (428 км)

Пояснения к столбцам:

Ветер - указаны скорость ветра в м/с - средняя за 10 мин, порывы в срок и между сроками (в фигурных скобках) и направление, откуда дует ветер: С - северный, СВ - северо-восточный, В - восточный, ЮВ - юго-восточный, Ю - южный, ЮЗ - юго-западный, З - западный, СЗ - северо-западный.
Видимость - горизонтальная дальность видимости в метрах или километрах. При видимости от 1 до 10 км при отсутствии осадков обычно наблюдается дымка, при ухудшении видимости до 1 км и менее - туман. В сухую погоду видимость может ухудшаться дымом, пылью или мглою.
Явления - указаны атмосферные явления, наблюдавшиеся в срок или в последний час перед сроком; фигурными скобками обозначены явления, наблюдавшиеся между сроками (за 1-3 часа до срока); квадратными скобками обозначены град или гололедные отложения с указанием их диаметра в мм.
Облачность - указаны через наклонную черту общая и нижняя облачность в баллах и высота нижней границы облаков в метрах; квадратными скобками обозначены формы облаков: Ci - перистые, Cs - перисто-слоистые, Cc - перисто-кучевые, Ac - высококучевые, As - высокослоистые, Sc - слоисто-кучевые, Ns - слоисто-дождевые, Cu - кучевые, Cb - кучево-дождевые. Подробнее классификацию облаков см. в Атласе облаков (PDF).
T - Температура воздуха - температура, измеренная на высоте 2 м над землей.
Td - Температура точки росы - температура, при понижении до которой содержащийся в воздухе водяной пар достигнет насыщения.
f - Относительная влажность воздуха - влажноcть воздуха, измеренная на высоте 2 м над землей.
Te - Эффективная температура - температура, которую ощущает одетый по сезону человек в тени. Характеристика душности погоды. При расчете учитывается влияние влажности воздуха и скорости ветра на теплоощущения человека.
Tes - Эффективная температура на солнце - температура, которую ощущает человек, с поправкой на солнечный нагрев. Характеристика знойности погоды. Зависит от высоты солнца над горизонтом, облачности и скорости ветра. Ночью, в пасмурную погоду, а также при ветре 12 м/с и более поправка равна нулю.
P - Атмосферное давление - приведенное к уровню моря атмосферное давление.
Po - Атмосферное давление - измеренное на уровне метеостанции атмосферное давление.
Tmin - Минимальная температура - минимум температуры воздуха на высоте 2 м над землей.
Tmax - Максимальная температура - максимум температуры воздуха на высоте 2 м над землей.
R - Количество осадков - Количество выпавших осадков за период времени, мм. При наведении курсора мыши на число - период времени, за который выпало указанное количество осадков.
R24 - Количество осадков - Количество выпавших осадков за 24 часа, мм.
S - Снежный покров - Высота снежного покрова, см. При наведении курсора мыши на число - состояние снежного покрова и степень покрытия местности в баллах.